STARLINK-34351

Last updated on Thu Jul 03 2025 00:02:07 GMT+0000 (Coordinated Universal Time)

1 64387U 25127T 25183.58335648 -.01563775 00000+0 -18764-1 0 9998 2 64387 43.0002 155.3613 0001288 274.0905 342.3425 15.63124160 4207
UTC large
Height (km)
Speed (km/s)
/
Latitude / Longitude
Inclination (degrees)
Orbital Period (minutes)
Azimuth
Elevation
Range (km)
Doppler Factor

Next 0 passes for location: London (51.5072 / 0.1276)

Sorry there are no passes over London.